星链-5089 (STARLINK-5089 )

导读

STARLINK-5089由美国于北京时间2023年3月29日8点发射,属于SpaceX星链卫星互联网项目。星链计划旨在构建全球卫星互联网星座,该卫星入轨后承担低轨宽带通信服务,可为偏远地区、海洋等传统网络覆盖盲区提供网络接入支持,补充全球通信基础设施能力。

Basic Information
目录编号:
56148
目录名称:
STARLINK-5089
国际标识:
2023-046BJ
轨道中心:
EARTH
卫星名称:
星链-5089
卫星全名:
星链-5089 (STARLINK-5089 )
卫星状态:
在轨 (已飞行1262 天)
发射日期:
2023-03-29 UTC
国别 :
美国 (US)
星等 :
--
This satellite is enrolled in the Space Conjunction Data Service (SCDS) and the current flight risk assessment level is: No High Risk
Orbit Information
数据来源 国际轨道数据 AOE轨道数据
星历时间 2026-09-11T09:40:59+0800
15小时前
查看轨道信息
2026-09-09T22:00:00+0800
2天前
查看轨道信息
半长轴 6861.209km 6861.173km
偏心率 0.0000828 0.0001255
轨道倾角 43.004° 43.004°
近地点辐角 281.496° 290.463°
升交点赤经 143.361° 151.756°
平近点角 78.580° 163.759°
近地点 482.503km 482.174km
远地点 483.641km 483.898km
周期 94.267分钟 94.266分钟
每日圈数 15.275724 15.275845
Detailed Information
固有亮度:
5
最大亮度:
2.5
卫星平台:
Starlink v1.5
覆盖范围:
全球
运营商:
太空探索技术公司
运营商所在国:
美国
制造商(研发单位):
太空探索技术公司
制造商所在国:
美国
使用方式:
暂无
Satellite Introduction
星链(Starlink)计划是由太空探索技术公司(SpaceX)提出的一个巨型低轨卫星互联网星座项目,计划在2019年至2024年间在太空搭建由约1.2万颗卫星组成的“星链”网络,其中1584颗将部署在地球上空550千米处的近地轨道,并从2020年开始工作。该卫星仍在工作。
2D Orbit Map
3D Orbit Map
Orbit Altitude Analysis Chart
Orbit Inclination Analysis Chart
Orbit Comprehensive Analysis Chart
View Comprehensive Chart
Conjunction Data List
Event ID Objects TCA Miss Dist (km) Collision Risk Probability Collision Risk Index (CRI) Action
CDM_260913-235705-614806-307321
2026-09-13T
23:57:21+0000
0.475 km
远距离
8.577748E-5 中风险 0.74
CDM_260913-102705-614805-967621
2026-09-13T
10:27:13+0000
0.838 km
远距离
2.583664E-5 中风险 0.63
CDM_260914-021805-614806-307321
2026-09-14T
02:18:34+0000
0.806 km
远距离
1.745377E-5 中风险 0.6
CDM_260913-212505-614806-704421
2026-09-13T
21:25:51+0000
1.053 km
极远距离
1.225255E-5 中风险 0.57
CDM_260913-163305-614806-733021
2026-09-13T
16:33:23+0000
1.440 km
极远距离
5.841899E-6 低风险 0.5
CDM_260913-180705-614806-733021
2026-09-13T
18:07:32+0000
1.478 km
极远距离
5.363035E-6 低风险 0.5
CDM_260913-195105-614806-704421
2026-09-13T
19:51:42+0000
2.397 km
极远距离
1.133069E-6 低风险 0.36
CDM_260913-142205-614805-967621
2026-09-13T
14:22:36+0000
2.535 km
极远距离
1.00004E-6 低风险 0.35
CDM_260913-155605-614805-967621
2026-09-13T
15:56:45+0000
2.941 km
极远距离
8.151704E-7 极低风险 0.33
Miss Distance Evolution Trend with All Objects
Collision Probability Evolution Trend with All Objects